Location: Oshawa
(43.9000°N, 78.8670°W)
Time: 10:15:20
(UTC-04:00)

Amateur Radio Satellites - All Passes

Search period start: 05 May 2016 09:45
Search period end: 06 May 2016 09:45
Location: Oshawa, 43.9000°N, 78.8670°W

Satellite Date Start Highest point End Downlink Frequencies (MHz)
Time Altitude Azimuth
CUBEBUG 2 05 May 09:49:10 09:53:14 40° 97° (E) 09:57:11 437.445
AAUSAT CUBESAT 2 05 May 09:53:33 09:57:40 61° 100° (E) 10:01:47 437.432
RS-15 05 May 09:59:09 10:04:28 14° 267° (W) 10:09:48 29.354- 29.394
ZACube-1 05 May 10:00:47 10:04:16 25° 94° (E) 10:07:42 437.345
ANTELSAT 05 May 10:05:29 10:09:37 33° 69° (ENE) 10:13:41 437.575/2403.000
CANX-2 05 May 10:08:21 10:12:12 35° 290° (WNW) 10:16:02 2200.000
PHONESAT 2.4 05 May 10:13:44 10:16:30 29° 164° (SSE) 10:19:17 2401.200-2431.200
HO-68 05 May 10:16:16 10:23:18 62° 292° (WNW) 10:30:19 435.675
ISS 05 May 10:24:12 10:26:45 20° 1° (N) 10:29:17 145.825
DOVE 4 05 May 10:36:34 10:37:52 11° 304° (NW) 10:39:09 437.250
Oscar 11 05 May 10:36:56 10:41:15 74° 101° (E) 10:45:33 145.826/435.025
HUMSAT D 05 May 10:40:47 10:43:32 17° 92° (E) 10:46:16 437.325/437.525
CUTE 1.7 + AOD 2 05 May 10:41:17 10:44:17 19° 295° (WNW) 10:47:18 437.475
DELFI C3 05 May 10:44:49 10:48:37 43° 99° (E) 10:52:26 145.870
FUNcube-1 05 May 10:52:38 10:56:51 90° 120° (ESE) 11:00:59 145.935
CINEMA 3 05 May 10:58:35 11:01:12 15° 299° (WNW) 11:03:45 145.822/145.860
UNISAT 6 05 May 10:59:21 11:03:58 70° 258° (WSW) 11:08:32 437.425
DUCHIFAT 1 05 May 11:00:36 11:03:57 23° 66° (ENE) 11:07:19 145.980
COMPASS 1 05 May 11:01:41 11:04:48 21° 294° (WNW) 11:07:55 437.405
SEEDS 05 May 11:04:00 11:06:27 15° 297° (WNW) 11:08:54 437.485
QB50P2 05 May 11:04:31 11:08:12 29° 68° (ENE) 11:11:53 145.880/145.840
AIST 1 05 May 11:04:34 11:08:23 28° 73° (ENE) 11:12:10
POLYITAN 1 05 May 11:06:41 11:10:23 29° 68° (ENE) 11:14:07 437.675
POPSAT HIP 1 05 May 11:08:29 11:12:13 30° 68° (ENE) 11:15:58 437.405
QB50P1 05 May 11:11:21 11:15:09 32° 69° (ENE) 11:18:58 145.935-145.965
UWE-3 05 May 11:12:25 11:16:18 35° 290° (WNW) 11:20:06 435.000/436.395/437.385
TIGRISAT 05 May 11:16:05 11:20:35 50° 261° (W) 11:25:01 435.000
CUBEBUG 2 05 May 11:26:29 11:29:35 20° 296° (WNW) 11:32:37 437.445
AAUSAT CUBESAT 2 05 May 11:30:40 11:32:41 13° 297° (WNW) 11:34:43 437.432
BUGSAT 1 05 May 11:30:42 11:34:07 24° 66° (ENE) 11:37:32 437.445
ESTCUBE 1 05 May 11:31:26 11:33:39 13° 90° (E) 11:35:50 437.505/2401.250
GONETS M04 05 May 11:34:12 11:42:48 56° 75° (ENE) 11:51:18
ZACube-1 05 May 11:36:57 11:40:33 29° 292° (WNW) 11:44:08 437.345
Cosmos 2499 05 May 11:38:55 11:45:52 34° 70° (ENE) 11:53:12 435.465 / 435.565
ANTELSAT 05 May 11:42:26 11:46:21 26° 265° (W) 11:50:12 437.575/2403.000
NANOSAT C BR1 05 May 11:44:03 11:48:18 69° 74° (ENE) 11:52:33 145.865
JAS-2 05 May 11:49:13 11:53:30 19° 54° (NE) 11:58:07 435.910
PHONESAT 2.4 05 May 11:50:01 11:53:03 44° 181° (S) 11:56:05 2401.200-2431.200
DX 1 05 May 11:52:32 11:54:38 13° 90° (E) 11:56:45 434.975-435.025
UKube-1 05 May 11:54:37 11:55:46 11° 89° (E) 11:56:55 .
ISS 05 May 12:00:47 12:03:50 35° 21° (NNE) 12:06:54 145.825
VELOX 1 05 May 12:04:23 12:07:46 21° 93° (E) 12:11:06 145.980
HO-68 05 May 12:06:22 12:09:38 14° 312° (NW) 12:12:54 435.675
Oscar 11 05 May 12:15:06 12:16:48 12° 299° (WNW) 12:18:30 145.826/435.025
HUMSAT D 05 May 12:15:32 12:19:21 40° 289° (WNW) 12:23:09 437.325/437.525
SPROUT 05 May 12:19:18 12:20:19 11° 88° (E) 12:21:20 437.525
DELFI C3 05 May 12:20:37 12:23:11 17° 295° (WNW) 12:25:44 145.870
AO-85 05 May 12:25:37 12:30:52 49° 118° (ESE) 12:36:05 145.980
Oscar 19 05 May 12:25:48 12:29:05 17° 60° (ENE) 12:32:24 437.125/150
DUCHIFAT 1 05 May 12:35:34 12:39:28 34° 263° (W) 12:43:23 145.980
AISAT 05 May 12:36:14 12:40:33 46° 99° (E) 12:44:50 437.250
QB50P2 05 May 12:40:18 12:43:58 27° 265° (W) 12:47:38 145.880/145.840
AIST 1 05 May 12:42:11 12:45:55 27° 271° (W) 12:49:37
POLYITAN 1 05 May 12:42:32 12:46:10 27° 265° (W) 12:49:50 437.675
POPSAT HIP 1 05 May 12:44:22 12:47:59 26° 265° (W) 12:51:37 437.405
Gurwin Techsat 1B 05 May 12:45:08 12:46:39 11° 55° (NE) 12:48:10 435.225
QB50P1 05 May 12:47:27 12:50:57 24° 265° (W) 12:54:28 145.935-145.965
50 SAT 05 May 12:59:29 13:03:09 80° 286° (WNW) 13:06:49 437.505
CUBEBUG 1 05 May 13:04:55 13:09:23 88° 93° (E) 13:13:49 437.445
BUGSAT 1 05 May 13:05:30 13:09:20 33° 263° (W) 13:13:12 437.445
ESTCUBE 1 05 May 13:06:23 13:10:53 65° 286° (WNW) 13:15:23 437.505/2401.250
NANOSAT C BR1 05 May 13:23:09 13:24:29 11° 271° (W) 13:25:50 145.865
PHONESAT 2.4 05 May 13:26:53 13:29:35 27° 197° (SSW) 13:32:18 2401.200-2431.200
DX 1 05 May 13:26:54 13:31:15 62° 287° (WNW) 13:35:33 434.975-435.025
UKube-1 05 May 13:27:58 13:32:19 73° 286° (WNW) 13:36:38 .
JAS-2 05 May 13:31:20 13:37:28 88° 255° (WSW) 13:44:30 435.910
GONETS M04 05 May 13:31:39 13:39:12 34° 276° (W) 13:46:43
Cosmos 2499 05 May 13:31:43 13:39:13 54° 269° (W) 13:47:18 435.465 / 435.565
ISS 05 May 13:37:15 13:40:20 40° 219° (SW) 13:43:25 145.825
VELOX 1 05 May 13:40:11 13:44:23 40° 290° (WNW) 13:48:33 145.980
O/OREOS (USA 219) 05 May 13:44:27 13:46:39 13° 98° (E) 13:48:50 437.305
ITAMSAT 1 05 May 13:50:28 13:53:55 18° 60° (ENE) 13:57:21 435.822/435.867
SPROUT 05 May 13:52:29 13:56:47 72° 285° (WNW) 14:01:02 437.525
SO-50 05 May 13:55:08 13:57:54 15° 32° (NNE) 14:00:38 436.795
Oscar 19 05 May 14:02:40 14:07:50 71° 258° (WSW) 14:13:02 437.125/150
AO-85 05 May 14:06:43 14:11:36 32° 316° (NW) 14:16:23 145.980
SWISSCUBE 05 May 14:07:41 14:08:26 10° 88° (E) 14:09:11 437.505
AO-7 05 May 14:10:07 14:16:14 24° 50° (NE) 14:22:21 29.400- 29.500
AISAT 05 May 14:13:30 14:16:42 20° 297° (WNW) 14:19:54 437.250
TISAT 1 05 May 14:15:40 14:19:52 60° 101° (E) 14:24:01 437.305
PCSat 05 May 14:17:50 14:20:09 13° 102° (ESE) 14:22:28 145.827
Gurwin Techsat 1B 05 May 14:20:22 14:25:40 72° 73° (ENE) 14:30:59 435.225
CUSAT 1 05 May 14:32:37 14:35:15 17° 82° (E) 14:38:19 437.405
BEESAT 05 May 14:38:09 14:41:39 20° 93° (E) 14:45:10 436.000
CUBEBUG 1 05 May 14:43:49 14:44:58 11° 301° (WNW) 14:46:07 437.445
JAS-2 05 May 15:20:22 15:23:43 15° 277° (W) 15:27:16 435.910
O/OREOS (USA 219) 05 May 15:20:53 15:25:27 67° 295° (WNW) 15:30:03 437.305
ITAMSAT 1 05 May 15:27:44 15:32:51 66° 257° (WSW) 15:38:01 435.822/435.867
ITUPSAT 1 05 May 15:34:16 15:39:03 70° 102° (ESE) 15:43:48 437.325
SO-50 05 May 15:34:31 15:39:17 71° 53° (NE) 15:43:51 436.795
DANDE 05 May 15:41:37 15:44:24 30° 90° (E) 15:47:51 436.750
SWISSCUBE 05 May 15:42:04 15:46:52 87° 282° (WNW) 15:51:38 437.505
TISAT 1 05 May 15:52:48 15:55:02 14° 298° (WNW) 15:57:16 437.305
AO-85 05 May 15:53:13 15:53:45 10° 338° (NNW) 15:54:17 145.980
KKS-1 05 May 15:55:26 15:58:08 16° 91° (E) 16:00:50 437.445
PCSat 05 May 15:57:17 16:02:43 89° 128° (SE) 16:08:11 145.827
AO-7 05 May 15:59:41 16:07:59 90° 77° (ENE) 16:16:20 29.400- 29.500
Gurwin Techsat 1B 05 May 16:03:06 16:06:09 15° 271° (W) 16:09:13 435.225
CUSAT 1 05 May 16:13:09 16:16:45 38° 290° (WNW) 16:21:26 437.405
BEESAT 05 May 16:15:07 16:19:41 46° 290° (WNW) 16:24:14 436.000
MOZHAYETS 4 05 May 16:19:46 16:23:04 19° 92° (E) 16:26:22
HORYU 2 05 May 16:21:12 16:25:09 31° 67° (ENE) 16:29:04 437.375
Cosmos 2491 05 May 16:44:02 16:51:04 25° 63° (ENE) 16:58:00 435.465 / 435.565
ITUPSAT 1 05 May 17:13:37 17:16:20 15° 300° (WNW) 17:19:02 437.325
SO-50 05 May 17:16:35 17:19:08 15° 252° (WSW) 17:21:39 436.795
CUTE-I 05 May 17:20:08 17:23:42 18° 60° (ENE) 17:27:15 437.470
SWISSCUBE 05 May 17:22:17 17:23:55 12° 302° (WNW) 17:25:33 437.505
DANDE 05 May 17:25:45 17:27:37 14° 299° (WNW) 17:29:44 436.750
KKS-1 05 May 17:30:40 17:35:02 53° 289° (WNW) 17:39:22 437.445
BEESAT 3 05 May 17:33:37 17:36:27 19° 112° (ESE) 17:39:18 437.485
STARS 05 May 17:38:53 17:43:19 83° 286° (WNW) 17:47:42 437.465
PCSat 05 May 17:43:04 17:46:52 19° 321° (NW) 17:50:42 145.827
BEESAT 2 05 May 17:47:19 17:49:48 16° 111° (ESE) 17:52:17 435.950
BRITE-PL 05 May 17:49:07 17:53:21 28° 65° (ENE) 17:57:52 437.365/2234.400
NOAA 15 05 May 17:50:32 17:55:34 47° 69° (ENE) 18:00:38 137.62
MOZHAYETS 4 05 May 17:56:06 18:00:28 44° 289° (WNW) 18:04:48
AO-7 05 May 17:56:12 18:01:47 20° 270° (W) 18:07:25 29.400- 29.500
LilacSat-2 05 May 17:56:13 17:59:21 24° 68° (ENE) 18:02:30 437.200
NOAA 18 05 May 17:56:56 18:02:13 50° 69° (ENE) 18:07:31 137.9125
HORYU 2 05 May 17:57:53 18:01:41 27° 264° (W) 18:05:30 437.375
Cubesat XI-IV 05 May 18:03:46 18:08:44 42° 68° (ENE) 18:13:43 437.490
CUBESAT XI-V 05 May 18:12:32 18:16:48 33° 96° (E) 18:21:02 437.345
M-CUBED/EXP-1 PRIME 05 May 18:23:47 18:27:53 30° 63° (ENE) 18:31:53 437.505
DOVE 4 05 May 18:26:23 18:29:50 18° 61° (ENE) 18:33:22 437.250
AUBIESAT-1 05 May 18:39:33 18:43:45 35° 64° (ENE) 18:47:51 437.475
Cosmos 2491 05 May 18:40:04 18:48:53 77° 265° (W) 18:57:36 435.465 / 435.565
GOMX 1 05 May 18:44:10 18:49:04 46° 70° (ENE) 18:54:13 467.674
YUBILEINY 05 May 18:51:39 19:00:04 56° 90° (E) 19:08:30 435.215
CUTE-I 05 May 18:57:55 19:03:12 68° 258° (WSW) 19:08:31 437.470
HO-68 05 May 19:00:07 19:05:40 25° 56° (ENE) 19:11:14 435.675
BEESAT 3 05 May 19:10:07 19:13:52 42° 310° (NW) 19:17:39 437.485
STRAND 1 05 May 19:10:10 19:11:59 12° 88° (E) 19:13:49 437.568
AO-85 05 May 19:17:26 19:19:52 13° 28° (NNE) 19:22:12 145.980
BEESAT 2 05 May 19:23:22 19:27:16 51° 308° (NW) 19:31:11 435.950
BRITE-PL 05 May 19:27:00 19:31:37 39° 264° (W) 19:36:37 437.365/2234.400
CANX-2 05 May 19:27:31 19:30:30 19° 65° (ENE) 19:33:28 2200.000
LilacSat-2 05 May 19:30:16 19:33:35 26° 265° (W) 19:36:53 437.200
NOAA 15 05 May 19:31:23 19:35:34 24° 267° (W) 19:39:47 137.62
NOAA 18 05 May 19:38:45 19:43:08 24° 266° (W) 19:47:31 137.9125
AIST 2 05 May 19:44:14 19:47:16 20° 112° (ESE) 19:50:20 435.215
Cubesat XI-IV 05 May 19:44:27 19:48:56 27° 265° (W) 19:53:27 437.490
CUBESAT XI-V 05 May 19:50:04 19:54:05 28° 293° (WNW) 19:58:04 437.345
M-CUBED/EXP-1 PRIME 05 May 19:58:03 20:02:19 33° 258° (WSW) 20:06:30 437.505
CUTE 1.7 + AOD 2 05 May 19:58:41 20:02:30 34° 70° (ENE) 20:06:20 437.475
RS-15 05 May 19:59:57 20:07:12 20° 97° (E) 20:14:39 29.354- 29.394
DOVE 4 05 May 20:01:47 20:06:56 69° 259° (WSW) 20:12:15 437.250
AUBIESAT-1 05 May 20:14:17 20:18:14 27° 259° (W) 20:22:06 437.475
COMPASS 1 05 May 20:17:47 20:21:22 29° 69° (ENE) 20:24:58 437.405
SEEDS 05 May 20:19:58 20:23:54 43° 72° (ENE) 20:27:51 437.485
Cosmos 2504 05 May 20:21:32 20:28:27 52° 91° (E) 20:35:21 435.465 / 435.565
CINEMA 3 05 May 20:21:55 20:26:55 68° 74° (ENE) 20:31:53 145.822/145.860
GOMX 1 05 May 20:23:11 20:27:21 25° 269° (W) 20:31:43 467.674
UWE-3 05 May 20:34:35 20:38:10 23° 66° (ENE) 20:41:41 435.000/436.395/437.385
Cosmos 2491 05 May 20:39:34 20:44:07 15° 286° (WNW) 20:48:40 435.465 / 435.565
AAUSAT CUBESAT 2 05 May 20:44:58 20:48:55 47° 72° (ENE) 20:52:52 437.432
HO-68 05 May 20:45:36 20:52:44 73° 256° (WSW) 20:59:55 435.675
STRAND 1 05 May 20:46:41 20:51:49 86° 285° (WNW) 20:56:57 437.568
CUBEBUG 2 05 May 20:47:56 20:52:23 42° 71° (ENE) 20:56:45 437.445
YUBILEINY 05 May 20:49:30 20:57:15 35° 291° (WNW) 21:05:02 435.215
AO-85 05 May 20:56:43 21:01:31 57° 51° (NE) 21:05:51 145.980
ZACube-1 05 May 20:57:43 21:01:26 26° 68° (ENE) 21:05:05 437.345
CANX-2 05 May 21:02:05 21:06:04 41° 262° (W) 21:10:05 2200.000
AIST 2 05 May 21:21:32 21:25:29 43° 310° (NW) 21:29:28 435.215
PRISM 05 May 21:23:25 21:27:30 49° 100° (E) 21:31:33 437.425
DELFI C3 05 May 21:32:17 21:35:44 30° 69° (ENE) 21:39:13 145.870
Oscar 11 05 May 21:32:41 21:36:57 66° 75° (ENE) 21:41:14 145.826/435.025
HUMSAT D 05 May 21:33:53 21:36:28 16° 64° (ENE) 21:39:02 437.325/437.525
CUTE 1.7 + AOD 2 05 May 21:35:12 21:38:26 21° 267° (W) 21:41:42 437.475
FUNcube-1 05 May 21:48:50 21:53:20 82° 77° (ENE) 21:57:46 145.935
COMPASS 1 05 May 21:53:34 21:56:56 24° 266° (W) 22:00:19 437.405
SEEDS 05 May 21:57:05 21:59:49 17° 268° (W) 22:02:34 437.485
CINEMA 3 05 May 22:01:33 22:04:28 15° 271° (W) 22:07:24 145.822/145.860
RS-15 05 May 22:06:13 22:17:30 79° 120° (ESE) 22:29:27 29.354- 29.394
UWE-3 05 May 22:10:04 22:14:24 40° 262° (W) 22:18:40 435.000/436.395/437.385
Cosmos 2504 05 May 22:15:59 22:22:08 30° 291° (WNW) 22:28:19 435.465 / 435.565
AAUSAT CUBESAT 2 05 May 22:22:15 22:24:40 15° 269° (W) 22:27:06 437.432
CUBEBUG 2 05 May 22:25:32 22:29:09 22° 267° (W) 22:32:43 437.445
STRAND 1 05 May 22:28:03 22:30:13 13° 303° (WNW) 22:32:23 437.568
CUBEBUG 1 05 May 22:30:24 22:30:41 10° 58° (ENE) 22:30:59 437.445
ESTCUBE 1 05 May 22:32:28 22:35:07 16° 62° (ENE) 22:37:46 437.505/2401.250
ZACube-1 05 May 22:33:32 22:37:35 33° 263° (W) 22:41:37 437.345
AO-85 05 May 22:38:20 22:41:26 18° 252° (WSW) 22:44:23 145.980
HO-68 05 May 22:38:52 22:41:39 12° 274° (W) 22:44:26 435.675
GONETS M04 05 May 22:48:14 22:50:16 11° 70° (ENE) 22:52:17
DX 1 05 May 22:49:31 22:52:01 15° 61° (ENE) 22:54:31 434.975-435.025
UKube-1 05 May 22:50:29 22:52:21 13° 60° (ENE) 22:54:12 .
UNISAT 6 05 May 22:50:34 22:53:50 21° 93° (E) 22:57:03 437.425
PRISM 05 May 22:59:48 23:02:26 16° 297° (WNW) 23:05:03 437.425
PCSat 05 May 23:01:20 23:05:14 19° 40° (NE) 23:09:05 145.827
VELOX 1 05 May 23:03:07 23:06:34 23° 65° (ENE) 23:10:02 145.980
TIGRISAT 05 May 23:06:34 23:10:19 28° 95° (E) 23:14:00 435.000
DELFI C3 05 May 23:07:36 23:10:39 21° 266° (W) 23:13:44 145.870
HUMSAT D 05 May 23:07:38 23:11:43 49° 260° (W) 23:15:47 437.325/437.525
Oscar 11 05 May 23:11:56 23:13:32 12° 271° (W) 23:15:08 145.826/435.025
SPROUT 05 May 23:14:36 23:15:58 11° 60° (ENE) 23:17:21 437.525
ANTELSAT 05 May 23:31:59 23:36:15 57° 100° (E) 23:40:25 437.575/2403.000
AISAT 05 May 23:34:42 23:38:58 48° 71° (ENE) 23:43:18 437.250
AIST 1 05 May 23:36:39 23:39:10 15° 85° (E) 23:41:41
50 SAT 05 May 23:39:10 23:42:44 54° 74° (ENE) 23:46:19 437.505
O/OREOS (USA 219) 05 May 23:50:35 23:54:42 33° 59° (ENE) 23:58:45 437.305
CUBEBUG 1 06 May 00:01:49 00:06:13 86° 74° (ENE) 00:10:40 437.445
ESTCUBE 1 06 May 00:07:02 00:11:26 60° 259° (W) 00:15:54 437.505/2401.250
DUCHIFAT 1 06 May 00:18:11 00:21:59 32° 96° (E) 00:25:44 145.980
Cosmos 2499 06 May 00:19:40 00:24:48 22° 81° (E) 00:29:59 435.465 / 435.565
RS-15 06 May 00:20:30 00:31:12 41° 327° (NNW) 00:42:29 29.354- 29.394
QB50P2 06 May 00:23:13 00:27:15 42° 98° (E) 00:31:16 145.880/145.840
DX 1 06 May 00:23:25 00:27:43 60° 258° (WSW) 00:32:05 434.975-435.025
UKube-1 06 May 00:23:30 00:27:49 73° 258° (WSW) 00:32:10 .
POLYITAN 1 06 May 00:25:25 00:29:28 43° 99° (E) 00:33:28 437.675
UNISAT 6 06 May 00:26:43 00:30:41 37° 290° (WNW) 00:34:36 437.425
POPSAT HIP 1 06 May 00:27:04 00:31:08 43° 99° (E) 00:35:09 437.405
QB50P1 06 May 00:29:55 00:34:03 47° 100° (E) 00:38:06 145.935-145.965
GONETS M04 06 May 00:36:28 00:45:05 61° 91° (E) 00:53:44
VELOX 1 06 May 00:38:40 00:42:48 38° 262° (W) 00:47:00 145.980
JAS-2 06 May 00:40:33 00:45:09 16° 85° (E) 00:49:41 435.910
TIGRISAT 06 May 00:43:19 00:46:57 27° 293° (WNW) 00:50:31 435.000
PCSat 06 May 00:43:53 00:49:21 87° 241° (WSW) 00:54:47 145.827
BUGSAT 1 06 May 00:45:50 00:49:34 31° 96° (E) 00:53:15 437.445
SPROUT 06 May 00:46:58 00:51:17 81° 258° (WSW) 00:55:38 437.525
CUSAT 1 06 May 01:01:17 01:07:39 30° 68° (ENE) 01:14:29 437.405
NANOSAT C BR1 06 May 01:02:44 01:06:59 77° 284° (WNW) 01:11:10 145.865
ITUPSAT 1 06 May 01:07:54 01:09:50 12° 58° (ENE) 01:11:47 437.325
TISAT 1 06 May 01:08:20 01:12:28 52° 72° (ENE) 01:16:38 437.305
ANTELSAT 06 May 01:10:04 01:12:30 15° 298° (WNW) 01:14:54 437.575/2403.000
AIST 1 06 May 01:12:08 01:16:19 48° 282° (WNW) 01:20:35
AISAT 06 May 01:12:45 01:15:43 17° 268° (W) 01:18:43 437.250
SWISSCUBE 06 May 01:14:23 01:17:14 16° 60° (ENE) 01:20:05 437.505
50 SAT 06 May 01:16:22 01:16:52 10° 270° (W) 01:17:22 437.505
O/OREOS (USA 219) 06 May 01:30:12 01:33:59 27° 257° (WSW) 01:37:43 437.305
BEESAT 06 May 01:45:45 01:49:46 28° 66° (ENE) 01:53:47 436.000
BEESAT 3 06 May 01:48:53 01:52:00 21° 43° (NE) 01:55:05 437.485
DUCHIFAT 1 06 May 01:54:09 01:57:32 24° 294° (WNW) 02:00:54 145.980
QB50P2 06 May 01:59:47 02:02:46 19° 296° (WNW) 02:05:44 145.880/145.840
POLYITAN 1 06 May 02:02:01 02:04:58 19° 296° (WNW) 02:07:53 437.675
BEESAT 2 06 May 02:03:02 02:05:57 19° 41° (NE) 02:08:51 435.950
POPSAT HIP 1 06 May 02:03:41 02:06:37 18° 296° (WNW) 02:09:31 437.405
QB50P1 06 May 02:06:42 02:09:28 17° 296° (WNW) 02:12:11 145.935-145.965
Cosmos 2499 06 May 02:10:11 02:17:11 65° 282° (WNW) 02:24:19 435.465 / 435.565
Oscar 19 06 May 02:13:00 02:17:49 37° 97° (E) 02:22:35 437.125/150
DANDE 06 May 02:14:27 02:21:03 48° 75° (ENE) 02:28:52 436.750
BUGSAT 1 06 May 02:21:26 02:24:49 24° 294° (WNW) 02:28:10 437.445
JAS-2 06 May 02:23:20 02:31:14 79° 103° (ESE) 02:39:00 435.910
PCSat 06 May 02:29:47 02:31:53 12° 258° (WSW) 02:33:59 145.827
GONETS M04 06 May 02:34:44 02:42:26 33° 293° (WNW) 02:50:10
Gurwin Techsat 1B 06 May 02:35:43 02:40:06 25° 94° (E) 02:44:27 435.225
RS-15 06 May 02:38:27 02:48:09 27° 1° (N) 02:58:07 29.354- 29.394
ITUPSAT 1 06 May 02:42:12 02:46:58 87° 258° (WSW) 02:51:46 437.325
CUSAT 1 06 May 02:42:48 02:50:12 67° 264° (W) 02:58:12 437.405
TISAT 1 06 May 02:46:02 02:48:27 15° 269° (W) 02:50:51 437.305
SWISSCUBE 06 May 02:49:47 02:54:31 66° 258° (WSW) 02:59:15 437.505
KKS-1 06 May 02:54:50 02:57:55 19° 63° (ENE) 03:01:01 437.445
STARS 06 May 03:03:25 03:05:11 12° 59° (ENE) 03:06:56 437.465
MOZHAYETS 4 06 May 03:23:04 03:26:35 22° 65° (ENE) 03:30:06
BEESAT 06 May 03:23:06 03:27:26 34° 263° (W) 03:31:46 436.000
BEESAT 3 06 May 03:26:08 03:29:54 44° 241° (WSW) 03:33:39 437.485
ITAMSAT 1 06 May 03:39:12 03:44:04 39° 98° (E) 03:48:54 435.822/435.867
BEESAT 2 06 May 03:40:12 03:44:07 54° 240° (WSW) 03:47:59 435.950
Oscar 19 06 May 03:52:31 03:57:01 30° 295° (WNW) 04:01:29 437.125/150
DANDE 06 May 03:57:30 04:03:49 38° 268° (W) 04:11:10 436.750
AO-7 06 May 04:00:25 04:07:15 27° 94° (E) 04:14:05 29.400- 29.500
AIST 2 06 May 04:03:26 04:06:51 24° 44° (NE) 04:10:14 435.215
JAS-2 06 May 04:09:18 04:15:27 26° 302° (WNW) 04:21:37 435.910
Cosmos 2499 06 May 04:09:51 04:11:58 11° 305° (NW) 04:14:07 435.465 / 435.565
Gurwin Techsat 1B 06 May 04:15:11 04:20:13 44° 291° (WNW) 04:25:13 435.225
CUSAT 1 06 May 04:27:45 04:31:13 14° 281° (W) 04:34:48 437.405
KKS-1 06 May 04:29:47 04:34:08 49° 260° (W) 04:38:30 437.445
STARS 06 May 04:36:28 04:40:54 80° 257° (WSW) 04:45:23 437.465
RS-15 06 May 04:53:36 05:05:02 43° 35° (NE) 05:16:34 29.354- 29.394
MOZHAYETS 4 06 May 04:59:13 05:03:30 40° 262° (W) 05:07:49
YUBILEINY 06 May 05:00:13 05:07:37 30° 66° (ENE) 05:14:59 435.215
CUBESAT XI-V 06 May 05:17:06 05:21:19 37° 70° (ENE) 05:25:35 437.345
ITAMSAT 1 06 May 05:18:59 05:23:23 29° 295° (WNW) 05:27:46 435.822/435.867
AIST 2 06 May 05:41:35 05:45:30 42° 242° (WSW) 05:49:24 435.215
HORYU 2 06 May 05:46:35 05:50:54 49° 100° (E) 05:55:10 437.375
Cosmos 2491 06 May 05:48:07 05:55:02 27° 80° (E) 06:01:57 435.465 / 435.565
SO-50 06 May 05:51:17 05:54:29 17° 110° (ESE) 05:57:41 436.795
AO-7 06 May 05:52:22 06:00:39 70° 293° (WNW) 06:08:55 29.400- 29.500
NOAA 15 06 May 06:05:30 06:08:38 16° 90° (E) 06:11:45 137.62
Cosmos 2504 06 May 06:11:38 06:17:10 21° 64° (ENE) 06:22:58 435.465 / 435.565
ISS 06 May 06:17:48 06:20:36 27° 138° (SE) 06:23:27 145.825
NOAA 18 06 May 06:18:32 06:22:11 18° 91° (E) 06:25:49 137.9125
Cubesat XI-IV 06 May 06:20:55 06:23:45 14° 89° (E) 06:26:33 437.490
STRAND 1 06 May 06:26:29 06:30:17 22° 62° (ENE) 06:34:05 437.568
GOMX 1 06 May 06:46:32 06:49:11 14° 86° (E) 06:51:47 467.674
CUBESAT XI-V 06 May 06:55:07 06:58:48 24° 267° (W) 07:02:33 437.345
YUBILEINY 06 May 06:56:29 07:05:04 66° 268° (W) 07:13:39 435.215
LilacSat-2 06 May 07:02:01 07:05:18 28° 96° (E) 07:08:35 437.200
RS-15 06 May 07:06:28 07:18:44 78° 241° (WSW) 07:31:00 29.354- 29.394
CUTE-I 06 May 07:13:34 07:18:39 43° 99° (E) 07:23:42 437.470
HORYU 2 06 May 07:24:07 07:27:05 18° 297° (WNW) 07:30:03 437.375
SO-50 06 May 07:29:34 07:34:28 67° 307° (NW) 07:39:22 436.795
BRITE-PL 06 May 07:29:40 07:35:23 68° 101° (E) 07:40:54 437.365/2234.400
M-CUBED/EXP-1 PRIME 06 May 07:38:03 07:39:51 13° 95° (E) 07:41:34 437.505
Cosmos 2491 06 May 07:42:14 07:51:03 71° 281° (W) 07:59:55 435.465 / 435.565
NOAA 15 06 May 07:43:38 07:48:57 72° 287° (WNW) 07:54:13 137.62
AO-7 06 May 07:46:49 07:52:00 18° 314° (NW) 07:57:12 29.400- 29.500
AUBIESAT-1 06 May 07:52:55 07:55:14 16° 96° (E) 07:57:28 437.475
ISS 06 May 07:53:47 07:56:57 46° 335° (NNW) 08:00:07 145.825
NOAA 18 06 May 07:57:54 08:03:19 65° 289° (WNW) 08:08:41 137.9125
Cubesat XI-IV 06 May 07:59:04 08:04:25 77° 286° (WNW) 08:09:44 437.490
DOVE 4 06 May 08:00:07 08:04:39 32° 94° (E) 08:08:56 437.250
Cosmos 2504 06 May 08:03:44 08:11:25 83° 264° (W) 08:19:41 435.465 / 435.565
STRAND 1 06 May 08:04:08 08:09:05 52° 260° (W) 08:14:05 437.568
HO-68 06 May 08:12:55 08:18:00 20° 90° (E) 08:23:03 435.675
PRISM 06 May 08:14:06 08:17:57 42° 71° (ENE) 08:21:51 437.425
CINEMA 3 06 May 08:17:24 08:19:45 14° 88° (E) 08:22:03 145.822/145.860
GOMX 1 06 May 08:22:30 08:27:58 81° 285° (WNW) 08:33:06 467.674
LilacSat-2 06 May 08:36:33 08:39:30 22° 292° (WNW) 08:42:25 437.200
CANX-2 06 May 08:45:41 08:49:23 29° 95° (E) 08:53:06 2200.000
CUTE-I 06 May 08:54:03 08:58:28 27° 296° (WNW) 09:02:53 437.470
YUBILEINY 06 May 08:57:09 09:00:01 12° 288° (WNW) 09:02:55 435.215
BRITE-PL 06 May 09:09:11 09:13:16 21° 299° (WNW) 09:17:16 437.365/2234.400
M-CUBED/EXP-1 PRIME 06 May 09:11:04 09:14:48 46° 294° (WNW) 09:18:13 437.505
SO-50 06 May 09:13:01 09:15:52 15° 328° (NNW) 09:18:43 436.795
PHONESAT 2.4 06 May 09:13:35 09:16:01 21° 159° (SSE) 09:18:29 2401.200-2431.200
CUTE 1.7 + AOD 2 06 May 09:17:26 09:21:36 57° 100° (E) 09:25:45 437.475
Oscar 11 06 May 09:21:00 09:22:06 11° 88° (E) 09:23:12 145.826/435.025
RS-15 06 May 09:21:12 09:29:10 21° 263° (W) 09:37:09 29.354- 29.394
NOAA 15 06 May 09:26:15 09:27:46 11° 306° (NW) 09:29:17 137.62
AUBIESAT-1 06 May 09:26:26 09:29:59 37° 295° (WNW) 09:33:17 437.475
ISS 06 May 09:31:24 09:33:58 21° 355° (N) 09:36:32 145.825
COMPASS 1 06 May 09:34:04 09:38:05 45° 99° (E) 09:42:05 437.405
FUNcube-1 06 May 09:37:21 09:39:20 13° 90° (E) 09:41:17 145.935
NOAA 18 06 May 09:41:58 09:42:56 10° 307° (NW) 09:43:54 137.9125
